Salinas, CA (93907)

8:06 PM PDT on September 03, 2015 (GMT -0700)
Prunedale | | Change Station
CLOSE
Current Station
Personal Weather Station
Location: Salinas, CA
Elevation: 236 ft
Nearby Weather Stations

Elev 236 ft 36.81 °N, 121.68 °W | Updated 2 seconds ago

Clear
Clear
60.4 °F
Feels Like 60.4 °F
N
0.0
Wind Variable Wind from SW
Gusts 2.0 mph

Today
High -- | Low -- °F
--% Chance of Precip.
Yesterday
High -- | Low -- °F
Precip. -- in
6:39 AM 7:32 PM
Waning Gibbous, 64% visible
Pressure 29.90 in
Visibility 10.0 miles
Clouds Clear
Dew Point 50 °F
Humidity 69%
Rainfall 0.00 in
Snow Depth Not available.
UV 0 out of 12
Pollen 8.00 out of 12
Air Quality Not available.
Flu Activity Not available.
METAR KSNS 040253Z 24011KT 10SM CLR 17/11 A2987 RMK AO2 SLP124 T01720111 56006
Pressure 29.90 in
Visibility 10.0 miles
Clouds Clear
Dew Point 50 °F
Humidity 69%
Rainfall 0.00 in
Snow Depth Not available.
UV 0 out of 12
Pollen 8.00 out of 12
Air Quality Not available.
Flu Activity Not available.
METAR KSNS 040253Z 24011KT 10SM CLR 17/11 A2987 RMK AO2 SLP124 T01720111 56006

10-Day Weather Forecast

×

Almanac

Astronomy

Sep. 03, 2015 Rise Set
Actual Time
Civil Twilight
Nautical Twilight
Astronomical Twilight
Moon
Length of Visible Light
Length of Day
Tomorrow will be .
, % of the Moon is Illuminated

Today's Extremes

State Highs State Lows

Community

WunderPhotos

Upload Photos

1,852,108 photos uploaded!

WunderBlogs® & News

Nearby

Air Quality

  Air Quality AQ Index Pollutant
Not available.

Snow Depth

Station Depth Elevation

Earthquake Activity

City Distance Mag. Time & Date
Minimum magnitude displayed is 2.5.

Coastal Water Temperatures

Place Temperature

Stations

Nearby Weather Stations

Station Location Temp. Windchill Dew Point Humidity Wind Precip. Elev Updated Type